Find Starlink 36967

NORAD ID: 68013 Int'l Des: 2026-039 Owner: SPXS Country: US Constellation: starlink operational
LEOCIRCULAR

Aktuelle Ansicht

3D-Globus wird geladen...

Über Starlink 36967

Beschreibung wird geladen...

Nächste Überflüge

Passes for default location (London). Set your location on the main map for personalized predictions.

Höhenverlauf

Loading altitude history...

Zweizeiliger Elementsatz

1 68013U 26039AD 26151.46349700 .00037264 00000-0 13560-2 0 9995
2 68013 43.0013 301.3856 0001016 246.7541 113.3203 15.27600603 14361
Epoch: 31. Mai 2026 • Age: 10 hours

Aktueller Status

Höhe 484.6 km
Geschwindigkeit 7.62 km/s
Subsatellitenpunkt -12.14°S, 78.18°W
Startdatum 27. Feb. 2026
Alter 0.2 years
Typ internet

Technische Details

Klassifizierung Payload
Masse 575.00 kg
Trockenmasse 530.00 kg
Gesamtmasse 575.00 kg
Länge 0.30 m
Durchmesser 4.10 m
Spannweite 29.00 m
Form Box + pan
Hersteller SPXS
Bus-Typ Starlink V2MO
Phasenstatus In Orbit
Besitzer/Staat SPXS/US

Most Searched